Prudhoe Bay, AK

3:12 PM AKST on February 07, 2016 (GMT -0900)
Deadhorse

Weather History for PASC - August, 2013

Change the Weather History Date:

Saturday, August 17, 2013

  Actual Average Record
Temperature  
Mean Temperature 44 °F -  
Max Temperature 50 °F 46 °F 69 °F (2004)
Min Temperature 39 °F 35 °F 28 °F (2006)
Degree Days  
Heating Degree Days 20    
Moisture  
Dew Point 42 °F    
Average Humidity 93    
Maximum Humidity 100    
Minimum Humidity 80    
Precipitation  
Precipitation 0.00 in - - ()
Sea Level Pressure  
Sea Level Pressure 29.72 in    
Wind  
Wind Speed 6 mph (West)    
Max Wind Speed 13 mph    
Max Gust Speed -    
Visibility 4 miles    
Events Fog    
Averages and records for this station are not official NWS values.
T = Trace of Precipitation, MM = Missing Value Source: NWS Daily Summary

Daily Weather History Graph

Daily Weather History Graph

Search for Another Location

Airport or City:

Trip Planner

Search our weather history database for the weather conditions in past years. The results will help you decide how hot, cold, wet, or windy it might be!

Date:

Astronomy

Aug. 17, 2013 Rise Set
Actual Time 5:00 AM AKDT 10:50 PM AKDT
Civil Twilight 2:51 AM AKDT 12:50 AM AKDT
Nautical Twilight Sun does not rise Sun does not rise
Astronomical Twilight Sun does not rise Sun does not rise
Moon 9:34 PM AKDT (8/17) No Moon Set
Length of Visible Light 21h 58m
Length of Day
17h 50m
Waxing Gibbous, 85% of the Moon is Illuminated
Aug 17
Waxing Gibbous
Aug 20
Full
Aug 28
Last Quarter
Sep 5
New
Sep 12
First Quarter

Hourly Weather History & Observations

Time (AKDT) Temp. Windchill Dew Point Humidity Pressure Visibility Wind Dir Wind Speed Gust Speed Precip Events Conditions
12:53 AM 42.1 °F 39.2 °F 41.0 °F 96% 29.74 in 0.5 mi NE 4.6 mph - N/A Fog Fog
1:53 AM 42.1 °F - 41.0 °F 96% 29.73 in 0.5 mi Calm Calm - N/A Fog Fog
2:53 AM 42.1 °F - 41.0 °F 96% 29.73 in 0.2 mi Calm Calm - N/A Fog Fog
3:32 AM 41.0 °F 38.0 °F 41.0 °F 100% 29.73 in 0.2 mi SSW 4.6 mph - N/A Fog Fog
3:48 AM 41.0 °F 39.0 °F 41.0 °F 100% 29.73 in 0.2 mi SW 3.5 mph - N/A Fog Fog
3:53 AM 41.0 °F 38.0 °F 41.0 °F 100% 29.73 in 0.2 mi SW 4.6 mph - N/A Fog Fog
4:17 AM 41.0 °F 38.0 °F 41.0 °F 100% 29.72 in 0.2 mi SW 4.6 mph - N/A Fog Fog
4:26 AM 41.0 °F 38.0 °F 41.0 °F 100% 29.73 in 0.5 mi WSW 4.6 mph - N/A Fog Fog
4:53 AM 41.0 °F 39.0 °F 39.9 °F 96% 29.73 in 0.5 mi WSW 3.5 mph - N/A Fog Fog
5:23 AM 41.0 °F 39.0 °F 39.2 °F 93% 29.72 in 0.2 mi WSW 3.5 mph - N/A Fog Fog
5:34 AM 39.2 °F - 39.2 °F 100% 29.72 in 0.2 mi Calm Calm - N/A Fog Fog
5:51 AM 41.0 °F - 41.0 °F 100% 29.72 in 0.2 mi Calm Calm - N/A Fog Fog
5:53 AM 41.0 °F - 41.0 °F 100% 29.73 in 0.2 mi Calm Calm - N/A Fog Fog
6:38 AM 42.8 °F - 41.0 °F 93% 29.72 in 0.5 mi Calm Calm - N/A Fog Fog
6:53 AM 43.0 °F - 42.1 °F 97% 29.72 in 0.5 mi Calm Calm - N/A Fog Fog
7:53 AM 44.1 °F 41.5 °F 43.0 °F 96% 29.73 in 0.2 mi West 4.6 mph - N/A Fog Fog
8:53 AM 44.1 °F 40.1 °F 44.1 °F 100% 29.73 in 0.2 mi West 6.9 mph - N/A Fog Fog
9:00 AM 44.6 °F 41.4 °F 44.6 °F 100% 29.72 in 2.0 mi West 5.8 mph - N/A   Overcast
9:53 AM 44.1 °F 40.1 °F 43.0 °F 96% 29.73 in 5.0 mi West 6.9 mph - N/A   Overcast
10:39 AM 44.6 °F 39.2 °F 42.8 °F 93% 29.72 in 10.0 mi West 10.4 mph - N/A   Overcast
10:53 AM 46.0 °F 41.0 °F 44.1 °F 93% 29.72 in 10.0 mi WSW 10.4 mph - N/A   Overcast
10:58 AM 46.4 °F 42.9 °F 42.8 °F 87% 29.72 in 10.0 mi West 6.9 mph - N/A   Overcast
11:53 AM 46.9 °F - 43.0 °F 86% 29.73 in 10.0 mi WSW 10.4 mph - N/A   Overcast
12:23 PM 48.2 °F - 44.6 °F 87% 29.72 in 10.0 mi West 11.5 mph - N/A   Overcast
12:53 PM 46.9 °F - 44.1 °F 90% 29.73 in 10.0 mi WSW 11.5 mph - N/A   Overcast
1:53 PM 48.9 °F - 44.1 °F 83% 29.73 in 10.0 mi WSW 12.7 mph - N/A   Overcast
2:13 PM 50.0 °F - 44.6 °F 82% 29.72 in 10.0 mi West 11.5 mph - N/A   Overcast
2:53 PM 48.9 °F - 44.1 °F 83% 29.72 in 10.0 mi West 10.4 mph - N/A   Overcast
3:53 PM 50.0 °F - 44.1 °F 80% 29.71 in 10.0 mi West 11.5 mph - N/A   Overcast
4:53 PM 48.9 °F - 43.0 °F 80% 29.71 in 10.0 mi WNW 11.5 mph - N/A   Overcast
5:53 PM 46.9 °F - 42.1 °F 83% 29.71 in 10.0 mi WNW 12.7 mph - N/A   Overcast
6:53 PM 46.9 °F - 42.1 °F 83% 29.71 in 10.0 mi WNW 10.4 mph - N/A   Overcast
7:11 PM 46.4 °F 40.7 °F 42.8 °F 87% 29.71 in 10.0 mi WNW 12.7 mph - N/A   Overcast
7:53 PM 45.0 °F 39.7 °F 42.1 °F 90% 29.72 in 10.0 mi WNW 10.4 mph - N/A   Overcast
8:00 PM 44.6 °F 38.8 °F 42.8 °F 93% 29.71 in 10.0 mi WNW 11.5 mph - N/A   Overcast
8:53 PM 43.0 °F 37.7 °F 41.0 °F 93% 29.72 in 9.0 mi WNW 9.2 mph - N/A   Overcast
9:01 PM 42.8 °F 37.0 °F 42.8 °F 100% 29.71 in 2.5 mi WNW 10.4 mph - N/A   Overcast
9:17 PM 42.8 °F 37.0 °F 42.8 °F 100% 29.71 in 10.0 mi WNW 10.4 mph - N/A   Overcast
9:31 PM 42.8 °F 37.0 °F 41.0 °F 93% 29.72 in 1.5 mi WNW 10.4 mph - N/A   Overcast
9:40 PM 42.8 °F 37.0 °F 41.0 °F 93% 29.71 in 2.0 mi WNW 10.4 mph - N/A   Overcast
9:53 PM 42.1 °F 36.1 °F 41.0 °F 96% 29.72 in 1.5 mi West 10.4 mph - N/A   Overcast
10:22 PM 42.8 °F 37.5 °F 41.0 °F 93% 29.72 in 0.5 mi West 9.2 mph - N/A Fog Fog
10:25 PM 42.8 °F 37.5 °F 41.0 °F 93% 29.72 in 0.2 mi West 9.2 mph - N/A Fog Fog
10:37 PM 41.0 °F 35.2 °F 41.0 °F 100% 29.72 in 0.5 mi West 9.2 mph - N/A Fog Fog
10:53 PM 41.0 °F 34.7 °F 39.9 °F 96% 29.72 in 0.2 mi West 10.4 mph - N/A Fog Fog
11:07 PM 41.0 °F 35.2 °F 39.2 °F 93% 29.72 in 0.8 mi WNW 9.2 mph - N/A   Overcast
11:45 PM 39.2 °F 33.6 °F 39.2 °F 100% 29.72 in 1.0 mi West 8.1 mph - N/A   Overcast
11:53 PM 39.9 °F 35.1 °F 39.0 °F 97% 29.73 in 0.8 mi West 6.9 mph - N/A   Mostly Cloudy